Regional Weather Roundup
Issued by NWS

Home | Current Version | Previous Version | Text Only | Print | Product List | Glossary Off
Versions: 1 2 3 4 5 6 7 8 9 10 11 12 13 14 15 16 17 18 19 20 21 22 23 24 25 26 27 28 29 30 31 32 33 34 35 36 37 38 39 40 41 42 43 44 45 46 47 48 49 50

000
ASUS43 KMKX 282121
RWRWI

WISCONSIN REGIONAL WEATHER ROUNDUP
NATIONAL WEATHER SERVICE MILWAUKEE/SULLIVAN WI
400 PM CDT MON JUL 28 2014

NOTE: "FAIR" INDICATES FEW OR NO CLOUDS BELOW 12,000 FEET WITH NO
SIGNIFICANT WEATHER AND/OR OBSTRUCTIONS TO VISIBILITY.

WIZ001-002-006>008-014>016-023>028-282200-
NORTHWEST WISCONSIN

CITY           SKY/WX    TMP DP  RH WIND       PRES   REMARKS
SUPERIOR ARPT  MOSUNNY   76  54  47 NW8       30.12F
ASHLAND        CLOUDY    72  55  55 NW8       30.11F
HAYWARD        MOSUNNY   73  49  42 N8        30.14F
SIREN          PTSUNNY   74  51  43 NW7       30.15S
RICE LAKE      MOSUNNY   72  51  46 NW7       30.16F
LADYSMITH      MOSUNNY   73  51  46 NW6       30.15S
EAU CLAIRE     MOSUNNY   75  49  39 NW12      30.13F
MENOMONIE      MOCLDY    74  48  39 W6G23     30.15F
NEW RICHMOND   SUNNY     74  49  42 NW8       30.16F
OSCEOLA        MOSUNNY   75  54  47 N8        30.18F
$$

WIZ003>005-009-010-017-018-282200-
NORTH CENTRAL WISCONSIN

CITY           SKY/WX    TMP DP  RH WIND       PRES   REMARKS
WOODRUFF       PTSUNNY   72  53  52 N9G18     30.11F
RHINELANDER    CLOUDY    69  51  52 NW8       30.11F
EAGLE RIVER    PTSUNNY   69  47  45 N12       30.10S
LAND O LAKES   MOSUNNY   70  47  44 N12G18    30.10F
PHILLIPS       CLOUDY    68  53  57 NW8       30.12S
TOMAHAWK       CLOUDY    67  49  53 NW8       30.12S
MEDFORD        PTSUNNY   70  53  53 NW10      30.12F
MERRILL        PTSUNNY   70  53  55 NW9       30.10S
$$

WIZ029-030-035-036-043>047-282200-
CENTRAL WISCONSIN

CITY           SKY/WX    TMP DP  RH WIND       PRES   REMARKS
WAUSAU         CLOUDY    73  50  44 NW10      30.08S
MOSINEE        MOSUNNY   72  52  49 NW14      30.11S
MARSHFIELD     PTSUNNY   73  52  47 NW15      30.11F
STEVENS POINT  PTSUNNY   70  49  46 NW12G17   30.10S
WAUPACA        PTSUNNY   77  48  36 NW9       30.08S
WAUTOMA        PTSUNNY   74  50  42 NW13G20   30.09F
WISC RAPIDS    MOSUNNY   74  50  42 NW14      30.11F
CAMP DOUGLAS   PTSUNNY   73  54  49 NW10      30.12S
$$

WIZ011>013-019>022-031-037>040-048>050-282200-
NORTHEAST WISCONSIN

CITY           SKY/WX    TMP DP  RH WIND       PRES   REMARKS
ANTIGO         CLOUDY    68  52  55 N8        30.10S
STURGEON BAY   CLOUDY    64  48  55 SE7       30.06S
GREEN BAY      CLOUDY    72  54  53 VRB3      30.05F
MANITOWOC      PTSUNNY   60  46  59 SE8       30.07F
APPLETON       PTSUNNY   72  48  43 N12G17    30.07F
CLINTONVILLE   CLOUDY    73  45  35 N13G20    30.06S
OSHKOSH        PTSUNNY   73  52  47 N9        30.06F
$$

WIZ032>034-041-042-053>061-282200-
SOUTHWEST WISCONSIN

CITY           SKY/WX    TMP DP  RH WIND       PRES   REMARKS
LA CROSSE      PTSUNNY   75  49  39 N12       30.13F
SPARTA         CLOUDY    72  47  40 NW8       30.14S
VIROQUA        MOCLDY    72  51  47 NW10      30.15S
BOSCOBEL       PTSUNNY   75  49  39 N6        30.14S
PRAIRIE DU CHI PTSUNNY   73  44  35 N7        30.14S
PLATTEVILLE    PTSUNNY   71  50  47 NW6       30.15S
$$

WIZ056-057-062-063-064-067-068-282200-
SOUTH CENTRAL WISCONSIN

CITY           SKY/WX    TMP DP  RH WIND       PRES   REMARKS
BARABOO/DELLS  CLOUDY    72  46  39 NW6       30.11S
LONE ROCK      PTSUNNY   77  52  41 NW10      30.12F
WATERTOWN      PTSUNNY   70  51  50 NW9       30.09S
MADISON        PTSUNNY   74  50  42 NW13G18   30.10F
MIDDLETON      CLOUDY    73  47  40 NW14G23   30.11F
MONROE         CLOUDY    70  50  49 N7G16     30.12F
JANESVILLE     PTSUNNY   75  45  33 N10       30.10S
$$

WIZ051-052-058>065-066-070>072-282200-
SOUTHEAST WISCONSIN

CITY           SKY/WX    TMP DP  RH WIND       PRES   REMARKS
MILWAUKEE      PTSUNNY   65  51  60 E10       30.09F
WAUKESHA       NOT AVBL
MILWAUKEE/TIMM SUNNY     70  46  43 NE16      30.09F
RACINE         SUNNY     65  50  58 N10       30.11S
BURLINGTON     PTSUNNY   69  48  46 N10G17    30.09S
KENOSHA        MOSUNNY   69  52  54 NE9       30.09S
FOND DU LAC    MOSUNNY   74  51  44 NW12      30.07F
SHEBOYGAN      MOSUNNY   65  50  58 E7        30.08S
WEST BEND      PTSUNNY   68  48  49 N8        30.08S
JUNEAU         PTSUNNY   71  45  39 NW10      30.09F
$$

LSZ147-162-282200-
LAKE SUPERIOR

STATION/POSITION TIME  TEMP    WIND        PRES    WAVE
                       AIR SEA DIR/SP/G            HT/PER
                 (UTC) (F)     (DEG/KT/KT) (MB)    (FT/S)
W MID LAKE BUOY  2050   50 44  250/ 10/ 10 1017.9F   1
PORT WING        2000   70     250/  6/ 11 1020.0F
SAXON HARBOR     2000             CALM     1019.6F
$$

LMZ867-665-643>646-282200-
LAKE MICHIGAN

STATION/POSITION TIME  TEMP    WIND        PRES    WAVE
                       AIR SEA DIR/SP/G            HT/PER
                 (UTC) (F)     (DEG/KT/KT) (MB)    (FT/S)
N MID LAKE BUOY  2050   55 55  200/  8/  8 1016.5F   1
NORTHPORT PIER   2000   65     320/  5/  7 1017.3F
SISTER BAY       1910   73        CALM       N/A
KEWAUNEE LAKESHO 2100   55     180/  6/  7 1018.8F
SHEBOYGAN LAKESH 2100   58      90/  3/  3 1018.9F
PORT WASHINGTON  2000   60      50/  4/  6 1019.3F
ATWATER BUOY     2100   61      30/  6     1019.9S
MILWAUKEE LAKESH 2100   60      50/  9/ 10   N/A
S MID LAKE BUOY  2050   58 60  340/ 21/ 25 1018.0F   7/ 7
KENOSHA   LAKESH 2100   60      30/ 12/ 15 1018.6S
$$

TC  - TEMPERATURE IN CELSIUS
VSB - VISIBILITY IN STATUTE MILES
WCI - WIND CHILL INDEX
HX  - HEAT INDEX



USA.gov is the U.S. government's official web portal to all federal, state and local government web resources and services.